Location: Ferintosh
(52.7647°N, 112.9692°W)
Time: 23:17:53
(UTC+00:00)

Vanguard 1 Rocket - Pass Details

Date: 20 May 2024
Orbit: 649 x 4221 km, 34.3° (Epoch: 13 June)

Event Time Altitude Azimuth Distance (km) Brightness Sun altitude
Rises 18:39:05 0° 241° (WSW) 7,357 12.1 56.1°
Reaches altitude 10° 18:45:36 10° 232° (SW) 5,727 11.7 56.4°
Maximum altitude 18:57:33 28° 182° (S) 3,129 11.3 56.9°
Drops below altitude 10° 19:04:51 10° 127° (SE) 3,408 10.9 57.1°
Sets 19:07:36 0° 115° (ESE) 4,029 11.0 57.2°
